OPS 4682 DEB, 38414

Orbit data source: Space-Track

OPS 4682 DEB, 38414 is space debris in LEO originally from a launch on Sat, 03 Apr 1965 UTC launched from the Air Force Western Test Range (AFWTR). Debris objects in space refer to the collection of defunct objects orbiting the Earth. Examples of debris include non-operational satellites, rocket bodies, and fragments generated from explosions, collisions, or faulty payload assembly.

Loading next visibility...
Identifier
38414, 1965-027DT
Orbit
LEO
Country
Flag of USUS
Related business
Manufacturer
Unknown
Mission
Spacecraft
Bus & Motor
Unknown
Mass
Unknown
Launch date (UTC)
1965-04-03 (61 years ago)
Launch vehicle
Unknown
Launch site
Air Force Western Test Range (AFWTR)
Object type
Payload
Rocket body
Debris
Shape & HBR
Unknown shape, 0.1 m
Radar Cross Section
Small (<0.1 m²)

Expand to show TLE details & history
Last TLE update: 3 days ago

TLE from 3 days ago
0 OPS 4682 DEB
1 38414U 65027DT  25291.90988970  .00000845  00000-0  28582-2 0  9993
2 38414  90.2383 347.2117 0038806  29.5343 330.7959 12.97942609109503
Epoch: 2025-10-18T21:50Z
TLE epoch observation values (Epoch: 2025-10-18T21:50:14.470Z)
Latitude
0.00002°
Longitude
-7.98273°
Altitude
1,247.154 km
Speed
7.244 km/s
True Right ascension
23h 08m 50s
True Declination
0° 00' 00"
Sunlit
Object was in full shadow at epoch
Visualization orbit readout
Latitude
Unknown
Longitude
Unknown
Altitude
Unknown
Speed
Unknown
Apparent Right ascension
Unknown
Apparent Declination
Unknown
Sunlit
N/A
Visualization observer readout
Local Sidereal Time
15:30:45
Azimuth
Unknown
Elevation
Unknown
Doppler factor
Unknown
Orbital elements
Apogee altitude
1,296.957 km
Perigee altitude
1,237.619 km
Semi-major axis
7,645.425 km
Eccentricity
0.00388
Inclination
90.2383°
RAAN
347.2117°
Arg. of periapsis
29.5343°
True anomaly
330.57801°
Mean anomaly
330.7959°
Eccentric anomaly
330.68705°
Mean motion
3.24669 °/min
Orbital period
110.88 mins
BSTAR
0.0028582
Loading maneuver chart data...
Computing Atmospheric mass density...
Loading historical data...
Loading historical data...
Loading historical data...
Loading historical data...
Loading historical data...
Loading historical data...
Loading historical data...

Documentation

Showing up to 5 results
|